Location: ASU Dark Sky Observatory
(36.2504°N, 81.4125°W)
Time: 18:03:32
(UTC-04:00)

Amateur Radio Satellites - All Passes

Search period start: 29 July 2015 17:33
Search period end: 30 July 2015 17:33
Location: ASU Dark Sky Observatory, 36.2504°N, 81.4125°W

Satellite Date Start Highest point End Downlink Frequencies (MHz)
Time Altitude Azimuth
CUTE-I 29 Jul 17:43:00 17:46:08 16° 65° (ENE) 17:49:29 437.470
DANDE 29 Jul 17:46:37 17:49:28 19° 263° (W) 17:52:45 436.750
AO-7 29 Jul 18:10:06 18:16:31 23° 267° (W) 18:22:35 29.400- 29.500
STARS 29 Jul 18:19:08 18:20:22 11° 295° (WNW) 18:21:20 437.465
Cubesat XI-IV 29 Jul 18:24:00 18:28:57 40° 71° (ENE) 18:33:59 437.490
VERMONT LUNAR 29 Jul 18:44:41 18:46:18 13° 144° (SE) 18:47:59 437.305
Cosmos 2499 29 Jul 18:44:55 18:51:36 25° 68° (ENE) 18:58:44 435.465 / 435.565
GONETS M04 29 Jul 18:52:57 19:01:39 75° 265° (W) 19:10:21
MOZHAYETS 4 29 Jul 19:06:20 19:09:29 18° 292° (WNW) 19:12:28
HO-68 29 Jul 19:13:59 19:14:50 10° 55° (NE) 19:16:12 435.675
CUBESAT XI-V 29 Jul 19:14:00 19:18:23 44° 98° (E) 19:22:47 437.345
PCSat 29 Jul 19:14:21 19:19:12 33° 55° (NE) 19:24:05 145.827
CUTE-I 29 Jul 19:20:29 19:25:46 59° 259° (W) 19:31:05 437.470
SO-50 29 Jul 19:36:10 19:40:59 51° 56° (NE) 19:45:42 436.795
PRISM 29 Jul 19:59:09 20:02:41 28° 96° (E) 20:06:15 437.425
Cubesat XI-IV 29 Jul 20:05:00 20:09:14 23° 266° (W) 20:13:19 437.490
STRAND 1 29 Jul 20:11:17 20:16:15 51° 100° (E) 20:21:12 437.568
VERMONT LUNAR 29 Jul 20:19:31 20:22:42 77° 159° (SSE) 20:25:53 437.305
BRITE-PL 29 Jul 20:24:25 20:28:58 75° 77° (ENE) 20:33:15 437.365/2234.400
Cosmos 2499 29 Jul 20:36:51 20:45:31 67° 267° (W) 20:54:16 435.465 / 435.565
RS-15 29 Jul 20:38:28 20:43:45 16° 101° (E) 20:50:01 29.354- 29.394
COMPASS 1 29 Jul 20:48:51 20:52:04 22° 70° (ENE) 20:55:23 437.405
GOMX 1 29 Jul 20:50:00 20:54:21 83° 77° (ENE) 20:58:32 467.674
DOVE 4 29 Jul 20:52:36 20:56:39 49° 74° (ENE) 21:00:40 437.250
CUBESAT XI-V 29 Jul 20:52:37 20:55:30 16° 292° (WNW) 20:58:12 437.345
HO-68 29 Jul 20:54:23 21:01:24 64° 71° (ENE) 21:08:28 435.675
GONETS M04 29 Jul 20:54:33 20:57:15 11° 281° (WNW) 20:59:09
CUTE 1.7 + AOD 2 29 Jul 20:56:28 21:00:30 44° 74° (ENE) 21:04:36 437.475
PCSat 29 Jul 20:57:50 21:02:34 30° 251° (WSW) 21:07:12 145.827
SEEDS 29 Jul 20:58:24 21:02:16 37° 73° (ENE) 21:06:13 437.485
CANX-2 29 Jul 21:04:12 21:08:24 62° 76° (ENE) 21:12:39 2200.000
SO-50 29 Jul 21:17:57 21:21:09 17° 251° (WSW) 21:24:06 436.795
CINEMA 3 29 Jul 21:22:44 21:26:40 45° 74° (ENE) 21:30:40 145.822/145.860
PHONESAT 2.4 29 Jul 21:24:29 21:27:43 36° 151° (SSE) 21:31:00 2401.200-2431.200
AAUSAT CUBESAT 2 29 Jul 21:31:46 21:35:53 61° 76° (ENE) 21:40:03 437.432
PRISM 29 Jul 21:34:57 21:37:58 19° 291° (WNW) 21:40:52 437.425
ISS 29 Jul 21:35:04 21:37:24 19° 130° (SE) 21:39:48 145.825
DELFI C3 29 Jul 21:38:54 21:41:48 20° 70° (ENE) 21:44:50 145.870
ZACube-1 29 Jul 21:45:57 21:49:06 22° 70° (ENE) 21:52:24 437.345
STRAND 1 29 Jul 21:51:45 21:55:06 17° 294° (WNW) 21:58:14 437.568
VERMONT LUNAR 29 Jul 21:56:35 21:59:36 38° 354° (N) 22:02:36 437.305
UWE-3 29 Jul 22:02:36 22:06:33 45° 74° (ENE) 22:10:37 435.000/436.395/437.385
FUNcube-1 29 Jul 22:08:10 22:12:00 38° 73° (ENE) 22:15:56 145.935
CUBEBUG 2 29 Jul 22:12:04 22:16:12 79° 78° (ENE) 22:20:26 437.445
COMPASS 1 29 Jul 22:24:03 22:27:36 26° 265° (W) 22:31:08 437.405
Oscar 11 29 Jul 22:25:27 22:29:45 72° 259° (W) 22:34:06 145.826/435.025
UKube-1 29 Jul 22:28:00 22:30:52 18° 68° (ENE) 22:33:53 .
DOVE 4 29 Jul 22:33:44 22:34:47 11° 270° (W) 22:35:33 437.250
CUTE 1.7 + AOD 2 29 Jul 22:34:34 22:36:42 13° 270° (W) 22:38:36 437.475
SEEDS 29 Jul 22:35:35 22:38:14 16° 268° (W) 22:40:43 437.485
Cosmos 2499 29 Jul 22:36:03 22:37:25 10° 282° (WNW) 22:37:54 435.465 / 435.565
M-CUBED/EXP-1 PRIME 29 Jul 22:37:10 22:41:43 42° 102° (ESE) 22:46:10 437.505
RS-15 29 Jul 22:43:47 22:54:39 83° 117° (ESE) 23:05:55 29.354- 29.394
HO-68 29 Jul 22:44:27 22:49:43 21° 268° (W) 22:54:40 435.675
DX 1 29 Jul 22:50:35 22:54:32 36° 72° (ENE) 22:58:32 434.975-435.025
HUMSAT D 29 Jul 22:54:34 22:58:34 55° 75° (ENE) 23:02:40 437.325/437.525
VELOX 1 29 Jul 22:55:08 22:58:31 23° 70° (ENE) 23:02:02 145.980
ESTCUBE 1 29 Jul 22:56:30 22:59:18 17° 68° (ENE) 23:02:14 437.505/2401.250
Cosmos 2491 29 Jul 22:59:41 23:04:52 18° 64° (ENE) 23:10:35 435.465 / 435.565
PHONESAT 2.4 29 Jul 23:02:10 23:05:38 57° 345° (NNW) 23:09:06 2401.200-2431.200
CINEMA 3 29 Jul 23:02:39 23:04:14 12° 270° (W) 23:05:33 145.822/145.860
AUBIESAT-1 29 Jul 23:09:07 23:13:54 80° 107° (ESE) 23:18:32 437.475
ISS 29 Jul 23:10:39 23:13:41 35° 325° (NW) 23:16:43 145.825
AIST 1 29 Jul 23:12:37 23:13:38 11° 69° (ENE) 23:14:55
DELFI C3 29 Jul 23:13:14 23:16:44 27° 265° (W) 23:20:11 145.870
TIGRISAT 29 Jul 23:21:49 23:25:53 30° 96° (E) 23:30:02 435.000
ZACube-1 29 Jul 23:21:50 23:25:22 26° 265° (W) 23:28:53 437.345
ANTELSAT 29 Jul 23:22:21 23:26:30 31° 96° (E) 23:30:43 437.575/2403.000
50 SAT 29 Jul 23:24:09 23:27:55 55° 75° (ENE) 23:31:45 437.505
POPSAT HIP 1 29 Jul 23:25:51 23:26:20 10° 89° (E) 23:27:09 437.405
QB50P2 29 Jul 23:31:27 23:33:24 13° 91° (E) 23:35:36 145.880/145.840
VERMONT LUNAR 29 Jul 23:33:37 23:36:41 44° 10° (N) 23:39:44 437.305
UWE-3 29 Jul 23:41:40 23:43:26 12° 270° (W) 23:44:59 435.000/436.395/437.385
FUNcube-1 29 Jul 23:46:09 23:48:33 14° 269° (W) 23:50:47 145.935
AISAT 29 Jul 23:50:29 23:54:55 79° 258° (WSW) 23:59:20 437.250
DUCHIFAT 1 29 Jul 23:57:53 00:01:23 25° 95° (E) 00:04:58 145.980
QB50P1 29 Jul 23:58:57 00:02:34 27° 96° (E) 00:06:15 145.935-145.965
NANOSAT C BR1 30 Jul 00:01:16 00:04:56 29° 96° (E) 00:08:40 145.865
UKube-1 30 Jul 00:02:49 00:06:46 34° 263° (W) 00:10:42 .
BEESAT 2 30 Jul 00:05:36 00:08:30 19° 112° (ESE) 00:11:32 435.950
M-CUBED/EXP-1 PRIME 30 Jul 00:12:36 00:16:11 21° 297° (WNW) 00:19:36 437.505
CUBEBUG 1 30 Jul 00:13:12 00:17:35 82° 258° (WSW) 00:21:57 437.445
UNISAT 6 30 Jul 00:13:30 00:18:10 70° 285° (WNW) 00:22:51 437.425
DX 1 30 Jul 00:28:01 00:30:56 17° 267° (W) 00:33:41 434.975-435.025
VELOX 1 30 Jul 00:31:08 00:34:58 28° 264° (W) 00:38:44 145.980
ESTCUBE 1 30 Jul 00:31:33 00:35:51 42° 262° (W) 00:40:09 437.505/2401.250
POLYITAN 1 30 Jul 00:40:09 00:44:27 90° 91° (E) 00:48:44 437.675
PHONESAT 2.4 30 Jul 00:40:36 00:43:56 39° 2° (N) 00:47:14 2401.200-2431.200
AUBIESAT-1 30 Jul 00:46:24 00:47:59 11° 300° (WNW) 00:49:17 437.475
AIST 1 30 Jul 00:47:34 00:51:42 50° 266° (W) 00:55:48
BEESAT 3 30 Jul 00:48:06 00:52:08 84° 119° (ESE) 00:56:15 437.485
Cosmos 2491 30 Jul 00:54:18 01:03:02 85° 265° (W) 01:11:45 435.465 / 435.565
POPSAT HIP 1 30 Jul 00:58:26 01:02:37 55° 285° (WNW) 01:06:46 437.405
TIGRISAT 30 Jul 00:58:41 01:02:30 24° 290° (WNW) 01:06:14 435.000
RS-15 30 Jul 00:59:13 01:08:35 30° 323° (NW) 01:17:59 29.354- 29.394
ANTELSAT 30 Jul 00:59:23 01:03:07 23° 290° (WNW) 01:06:46 437.575/2403.000
SPROUT 30 Jul 00:59:34 01:03:50 86° 258° (WSW) 01:08:08 437.525
QB50P2 30 Jul 01:05:30 01:09:34 44° 286° (WNW) 01:13:37 145.880/145.840
SWISSCUBE 30 Jul 01:07:09 01:09:09 13° 65° (ENE) 01:11:24 437.505
VERMONT LUNAR 30 Jul 01:10:24 01:13:29 50° 206° (SSW) 01:16:31 437.305
YUBILEINY 30 Jul 01:12:52 01:21:23 64° 92° (E) 01:30:00 435.215
BUGSAT 1 30 Jul 01:16:45 01:20:44 54° 285° (WNW) 01:24:43 437.445
AIST 2 30 Jul 01:19:54 01:23:30 28° 113° (ESE) 01:27:12 435.215
TISAT 1 30 Jul 01:21:58 01:26:08 77° 257° (WSW) 01:30:20 437.305
ITUPSAT 1 30 Jul 01:25:32 01:28:42 18° 67° (ENE) 01:32:02 437.325
DUCHIFAT 1 30 Jul 01:33:43 01:37:06 23° 289° (WNW) 01:40:23 145.980
QB50P1 30 Jul 01:35:01 01:38:19 21° 290° (WNW) 01:41:29 145.935-145.965
O/OREOS (USA 219) 30 Jul 01:36:40 01:38:53 14° 101° (E) 01:41:21 437.305
NANOSAT C BR1 30 Jul 01:37:24 01:40:37 21° 290° (WNW) 01:43:43 145.865
BEESAT 2 30 Jul 01:42:39 01:46:21 32° 306° (NW) 01:50:05 435.950
Oscar 19 30 Jul 01:57:14 02:01:01 21° 93° (E) 02:04:56 437.125/150
PHONESAT 2.4 30 Jul 02:18:39 02:22:09 80° 19° (NNE) 02:25:38 2401.200-2431.200
BEESAT 30 Jul 02:21:34 02:26:20 73° 75° (ENE) 02:31:09 436.000
KKS-1 30 Jul 02:22:29 02:22:49 10° 65° (ENE) 02:23:27 437.445
Gurwin Techsat 1B 30 Jul 02:36:37 02:39:13 14° 90° (E) 02:42:07 435.225
SWISSCUBE 30 Jul 02:41:46 02:46:32 63° 259° (W) 02:51:18 437.505
Cosmos 2491 30 Jul 02:54:37 02:58:48 14° 280° (W) 03:02:16 435.465 / 435.565
AIST 2 30 Jul 02:58:31 03:02:04 25° 309° (NW) 03:05:34 435.215
ITUPSAT 1 30 Jul 03:01:43 03:06:18 43° 261° (W) 03:10:53 437.325
YUBILEINY 30 Jul 03:11:59 03:18:57 25° 292° (WNW) 03:25:38 435.215
ITAMSAT 1 30 Jul 03:12:11 03:16:34 28° 95° (E) 03:21:01 435.822/435.867
O/OREOS (USA 219) 30 Jul 03:13:41 03:17:57 44° 294° (WNW) 03:22:16 437.305
Cosmos 2504 30 Jul 03:21:00 03:27:36 48° 90° (E) 03:34:42 435.465 / 435.565
RS-15 30 Jul 03:21:10 03:26:32 14° 357° (N) 03:31:57 29.354- 29.394
STARS 30 Jul 03:34:22 03:38:25 39° 73° (ENE) 03:42:31 437.465
Oscar 19 30 Jul 03:35:42 03:40:32 41° 288° (WNW) 03:45:21 437.125/150
KKS-1 30 Jul 03:54:33 03:58:57 68° 259° (WSW) 04:03:22 437.445
PHONESAT 2.4 30 Jul 03:57:09 03:59:53 21° 213° (SSW) 04:02:34 2401.200-2431.200
ISS 30 Jul 04:04:56 04:06:29 13° 24° (NNE) 04:08:05 145.825
Gurwin Techsat 1B 30 Jul 04:14:27 04:19:41 61° 286° (WNW) 04:24:55 435.225
AO-7 30 Jul 04:20:23 04:26:53 26° 94° (E) 04:33:39 29.400- 29.500
JAS-2 30 Jul 04:20:59 04:28:42 59° 99° (E) 04:36:20 435.910
MOZHAYETS 4 30 Jul 04:27:44 04:31:40 29° 71° (ENE) 04:35:41
ITAMSAT 1 30 Jul 04:51:33 04:56:03 30° 291° (WNW) 05:00:28 435.822/435.867
HORYU 2 30 Jul 04:54:16 04:58:31 40° 99° (E) 05:02:45 437.375
JUGNU 30 Jul 05:05:34 05:07:56 13° 170° (S) 05:10:23 437.505
STARS 30 Jul 05:12:23 05:15:04 15° 268° (W) 05:17:35 437.465
DANDE 30 Jul 05:13:35 05:17:03 35° 98° (E) 05:19:53 436.750
Cosmos 2504 30 Jul 05:14:18 05:20:12 27° 290° (WNW) 05:26:11 435.465 / 435.565
RS-15 30 Jul 05:36:14 05:45:05 25° 32° (NNE) 05:54:34 29.354- 29.394
ISS 30 Jul 05:40:06 05:43:23 83° 45° (NE) 05:46:38 145.825
CUSAT 1 30 Jul 05:51:45 05:54:30 26° 281° (W) 05:56:52 437.405
GONETS M04 30 Jul 05:56:07 06:02:39 26° 85° (E) 06:09:32
MOZHAYETS 4 30 Jul 06:05:04 06:08:52 24° 266° (W) 06:12:36
JAS-2 30 Jul 06:06:47 06:13:17 29° 295° (WNW) 06:19:34 435.910
AO-7 30 Jul 06:12:03 06:20:15 62° 291° (WNW) 06:28:21 29.400- 29.500
CUBESAT XI-V 30 Jul 06:14:51 06:19:00 33° 72° (ENE) 06:23:11 437.345
HORYU 2 30 Jul 06:31:50 06:34:51 17° 292° (WNW) 06:37:43 437.375
Cubesat XI-IV 30 Jul 06:44:45 06:48:26 20° 92° (E) 06:52:18 437.490
PRISM 30 Jul 06:47:33 06:50:04 16° 68° (ENE) 06:52:45 437.425
JUGNU 30 Jul 06:52:49 06:56:12 16° 180° (S) 06:59:33 437.505
SRMSAT 30 Jul 06:52:51 06:55:10 12° 170° (S) 06:57:34 437.500
Cosmos 2499 30 Jul 07:21:05 07:25:10 17° 81° (E) 07:29:52 435.465 / 435.565
STRAND 1 30 Jul 07:24:27 07:29:27 56° 74° (ENE) 07:34:31 437.568
CUTE-I 30 Jul 07:40:12 07:45:31 69° 101° (E) 07:50:48 437.470
RS-15 30 Jul 07:48:07 07:59:59 77° 58° (ENE) 08:12:16 29.354- 29.394
GONETS M04 30 Jul 07:50:23 07:58:59 60° 281° (W) 08:07:32
CUBESAT XI-V 30 Jul 07:52:50 07:56:30 22° 267° (W) 08:00:01 437.345
AO-7 30 Jul 08:08:34 08:11:35 12° 309° (NW) 08:14:03 29.400- 29.500
PRISM 30 Jul 08:21:20 08:25:13 37° 262° (W) 08:29:07 437.425
Cubesat XI-IV 30 Jul 08:23:43 08:28:48 45° 288° (WNW) 08:33:49 437.490
HO-68 30 Jul 08:28:22 08:30:39 12° 87° (E) 08:33:33 435.675
BRITE-PL 30 Jul 08:31:22 08:35:05 27° 96° (E) 08:39:06 437.365/2234.400
SRMSAT 30 Jul 08:40:11 08:43:34 16° 180° (S) 08:46:58 437.500
JUGNU 30 Jul 08:42:08 08:44:26 12° 190° (S) 08:46:39 437.505
CANX-2 30 Jul 08:53:50 08:55:50 13° 90° (E) 08:58:03 2200.000
GOMX 1 30 Jul 08:53:51 08:57:44 29° 96° (E) 09:01:56 467.674
DOVE 4 30 Jul 08:54:14 08:57:17 18° 93° (E) 09:00:37 437.250
STRAND 1 30 Jul 09:06:08 09:09:06 15° 269° (W) 09:11:47 437.568
BEESAT 3 30 Jul 09:09:32 09:12:43 22° 51° (NE) 09:15:56 437.485
Cosmos 2499 30 Jul 09:10:09 09:17:24 74° 278° (W) 09:25:15 435.465 / 435.565
AAUSAT CUBESAT 2 30 Jul 09:19:26 09:20:50 12° 90° (E) 09:22:28 437.432
CINEMA 3 30 Jul 09:20:44 09:23:21 15° 91° (E) 09:26:14 145.822/145.860
CUTE-I 30 Jul 09:22:19 09:25:04 14° 296° (WNW) 09:27:32 437.470
M-CUBED/EXP-1 PRIME 30 Jul 09:22:58 09:26:26 31° 66° (ENE) 09:30:14 437.505
AIST 2 30 Jul 09:45:50 09:46:43 11° 43° (NE) 09:47:48 435.215
SO-50 30 Jul 09:48:18 09:52:21 30° 112° (ESE) 09:56:35 436.795
PCSat 30 Jul 09:53:01 09:58:12 50° 112° (ESE) 10:03:28 145.827
AUBIESAT-1 30 Jul 09:54:05 09:57:57 63° 71° (ENE) 10:02:11 437.475
UWE-3 30 Jul 09:56:34 09:58:24 12° 90° (E) 10:00:31 435.000/436.395/437.385
RS-15 30 Jul 10:02:03 10:11:38 28° 255° (WSW) 10:20:51 29.354- 29.394
BEESAT 2 30 Jul 10:03:36 10:07:38 66° 59° (ENE) 10:11:37 435.950
CUBEBUG 2 30 Jul 10:06:00 10:09:29 21° 93° (E) 10:13:09 437.445
COMPASS 1 30 Jul 10:09:12 10:13:23 59° 100° (E) 10:17:31 437.405
BRITE-PL 30 Jul 10:10:04 10:13:34 23° 288° (WNW) 10:17:09 437.365/2234.400
HO-68 30 Jul 10:12:16 10:19:30 85° 105° (ESE) 10:26:43 435.675
Oscar 11 30 Jul 10:15:55 10:19:28 24° 95° (E) 10:23:04 145.826/435.025
TIGRISAT 30 Jul 10:19:03 10:21:57 18° 68° (ENE) 10:25:02 435.000
ANTELSAT 30 Jul 10:19:42 10:22:45 20° 69° (ENE) 10:25:58 437.575/2403.000
CUTE 1.7 + AOD 2 30 Jul 10:19:46 10:24:02 62° 284° (WNW) 10:28:15 437.475
SEEDS 30 Jul 10:20:29 10:24:46 77° 283° (WNW) 10:28:59 437.485
CANX-2 30 Jul 10:27:56 10:32:03 44° 286° (WNW) 10:36:06 2200.000
SRMSAT 30 Jul 10:29:34 10:31:58 12° 190° (S) 10:34:18 437.500
DOVE 4 30 Jul 10:30:53 10:35:10 40° 286° (WNW) 10:39:41 437.250
GOMX 1 30 Jul 10:32:09 10:35:48 24° 288° (WNW) 10:39:31 467.674
HUMSAT D 30 Jul 10:43:17 10:44:35 11° 90° (E) 10:46:10 437.325/437.525
BEESAT 3 30 Jul 10:47:11 10:50:40 28° 247° (WSW) 10:54:02 437.485
DUCHIFAT 1 30 Jul 10:49:01 10:51:09 14° 68° (ENE) 10:53:29 145.980
QB50P1 30 Jul 10:50:17 10:52:42 16° 68° (ENE) 10:55:17 145.935-145.965
NANOSAT C BR1 30 Jul 10:52:19 10:54:49 16° 69° (ENE) 10:57:29 145.865
AAUSAT CUBESAT 2 30 Jul 10:52:42 10:56:46 47° 285° (WNW) 11:00:47 437.432
DELFI C3 30 Jul 10:54:11 10:58:05 45° 99° (E) 11:01:58 145.870
CINEMA 3 30 Jul 10:56:17 11:00:47 48° 285° (WNW) 11:05:26 145.822/145.860
M-CUBED/EXP-1 PRIME 30 Jul 10:58:38 11:01:22 18° 264° (W) 11:04:09 437.505
UNISAT 6 30 Jul 11:09:48 11:14:05 74° 76° (ENE) 11:18:29 437.425
Cosmos 2499 30 Jul 11:10:31 11:12:26 11° 302° (WNW) 11:13:44 435.465 / 435.565
ZACube-1 30 Jul 11:11:46 11:16:18 69° 100° (E) 11:20:53 437.345
AIST 2 30 Jul 11:21:43 11:25:55 80° 242° (WSW) 11:30:01 435.215
YUBILEINY 30 Jul 11:26:59 11:34:03 27° 69° (ENE) 11:41:24 435.215
SO-50 30 Jul 11:28:40 11:32:51 30° 309° (NW) 11:37:07 436.795
POLYITAN 1 30 Jul 11:30:30 11:34:30 46° 74° (ENE) 11:38:33 437.675
UWE-3 30 Jul 11:30:47 11:35:17 55° 285° (WNW) 11:39:50 435.000/436.395/437.385
FUNcube-1 30 Jul 11:34:30 11:39:01 67° 284° (WNW) 11:43:34 145.935
PCSat 30 Jul 11:37:46 11:41:57 22° 310° (NW) 11:46:02 145.827
CUBEBUG 2 30 Jul 11:42:04 11:46:13 33° 288° (WNW) 11:50:24 437.445
AISAT 30 Jul 11:44:18 11:47:48 23° 95° (E) 11:51:24 437.250
COMPASS 1 30 Jul 11:47:34 11:48:35 11° 293° (WNW) 11:49:20 437.405
O/OREOS (USA 219) 30 Jul 11:47:37 11:50:54 20° 59° (ENE) 11:54:19 437.305
POPSAT HIP 1 30 Jul 11:48:16 11:52:27 76° 77° (ENE) 11:56:39 437.405
Oscar 11 30 Jul 11:51:59 11:55:35 25° 289° (WNW) 11:59:06 145.826/435.025
UKube-1 30 Jul 11:52:27 11:56:35 45° 99° (E) 12:00:43 .
TIGRISAT 30 Jul 11:54:33 11:58:28 33° 264° (W) 12:02:26 435.000
QB50P2 30 Jul 11:55:21 11:59:33 85° 258° (WSW) 12:03:46 145.880/145.840
ANTELSAT 30 Jul 11:55:27 11:59:20 32° 264° (W) 12:03:15 437.575/2403.000
Cosmos 2491 30 Jul 11:58:10 12:04:14 22° 83° (E) 12:10:42 435.465 / 435.565
HO-68 30 Jul 12:01:59 12:06:29 17° 301° (WNW) 12:10:37 435.675
BUGSAT 1 30 Jul 12:03:53 12:07:56 70° 76° (ENE) 12:11:57 437.445
CUBEBUG 1 30 Jul 12:05:20 12:08:39 22° 94° (E) 12:12:03 437.445
HUMSAT D 30 Jul 12:16:28 12:20:41 52° 285° (WNW) 12:24:53 437.325/437.525
DX 1 30 Jul 12:17:04 12:21:25 82° 285° (WNW) 12:25:45 434.975-435.025
DUCHIFAT 1 30 Jul 12:22:41 12:26:39 41° 262° (W) 12:30:36 145.980
VELOX 1 30 Jul 12:23:21 12:27:44 65° 101° (E) 12:32:06 145.980
QB50P1 30 Jul 12:24:21 12:28:17 38° 262° (W) 12:32:12 145.935-145.965
NANOSAT C BR1 30 Jul 12:26:30 12:30:24 36° 263° (W) 12:34:16 145.865
ESTCUBE 1 30 Jul 12:26:38 12:30:59 48° 99° (E) 12:35:19 437.505/2401.250
DELFI C3 30 Jul 12:30:58 12:32:47 12° 292° (WNW) 12:34:23 145.870
50 SAT 30 Jul 12:36:19 12:40:16 64° 284° (WNW) 12:44:11 437.505
SPROUT 30 Jul 12:49:38 12:52:43 20° 93° (E) 12:55:56 437.525
ZACube-1 30 Jul 12:51:00 12:52:10 11° 294° (WNW) 12:53:03 437.345
POLYITAN 1 30 Jul 13:08:57 13:10:43 12° 270° (W) 13:12:14 437.675
TISAT 1 30 Jul 13:09:45 13:12:47 20° 94° (E) 13:15:56 437.305
Cosmos 2504 30 Jul 13:11:41 13:15:23 14° 62° (ENE) 13:19:46 435.465 / 435.565
Oscar 19 30 Jul 13:11:44 13:15:40 24° 68° (ENE) 13:19:45 437.125/150
AIST 1 30 Jul 13:13:44 13:18:06 77° 277° (W) 13:22:28
AISAT 30 Jul 13:20:37 13:24:21 27° 289° (WNW) 13:28:01 437.250
YUBILEINY 30 Jul 13:22:51 13:31:30 59° 268° (W) 13:40:03 435.215
O/OREOS (USA 219) 30 Jul 13:26:15 13:30:29 36° 255° (WSW) 13:34:39 437.305
UKube-1 30 Jul 13:29:58 13:32:22 14° 293° (WNW) 13:34:35 .
CUBEBUG 1 30 Jul 13:41:18 13:45:00 27° 289° (WNW) 13:48:38 437.445
Cosmos 2491 30 Jul 13:51:40 14:00:25 68° 280° (W) 14:09:08 435.465 / 435.565
Gurwin Techsat 1B 30 Jul 13:55:01 13:58:31 19° 66° (ENE) 14:02:14 435.225
VELOX 1 30 Jul 14:02:49 14:03:48 10° 295° (WNW) 14:04:32 145.980
ESTCUBE 1 30 Jul 14:04:59 14:07:29 14° 293° (WNW) 14:09:46 437.505/2401.250
SPROUT 30 Jul 14:25:04 14:28:51 30° 288° (WNW) 14:32:34 437.525
BEESAT 30 Jul 14:25:13 14:28:53 23° 94° (E) 14:32:41 436.000
ITAMSAT 1 30 Jul 14:27:32 14:32:10 34° 70° (ENE) 14:36:52 435.822/435.867
JAS-2 30 Jul 14:32:46 14:36:28 17° 61° (ENE) 14:40:44 435.910
SWISSCUBE 30 Jul 14:44:52 14:49:21 40° 98° (E) 14:53:50 437.505
TISAT 1 30 Jul 14:44:55 14:48:35 29° 288° (WNW) 14:52:11 437.305
Oscar 19 30 Jul 14:50:10 14:54:51 36° 263° (W) 14:59:32 437.125/150
Cosmos 2504 30 Jul 15:00:39 15:09:06 79° 83° (E) 15:17:45 435.465 / 435.565
ITUPSAT 1 30 Jul 15:04:41 15:09:25 60° 101° (E) 15:14:07 437.325
AO-7 30 Jul 15:16:44 15:23:35 30° 61° (ENE) 15:30:38 29.400- 29.500
Gurwin Techsat 1B 30 Jul 15:33:00 15:38:09 50° 261° (W) 15:43:19 435.225
KKS-1 30 Jul 15:48:36 15:52:24 27° 96° (E) 15:56:15 437.445
HORYU 2 30 Jul 15:50:16 15:53:58 27° 70° (ENE) 15:57:45 437.375
DANDE 30 Jul 15:53:20 15:56:23 23° 79° (E) 16:00:15 436.750
Cosmos 2491 30 Jul 15:56:53 15:59:22 11° 302° (WNW) 16:01:03 435.465 / 435.565
BEESAT 30 Jul 16:02:32 16:06:48 32° 289° (WNW) 16:10:59 436.000
ITAMSAT 1 30 Jul 16:07:22 16:11:43 25° 265° (W) 16:15:57 435.822/435.867
JAS-2 30 Jul 16:14:56 16:20:45 70° 259° (W) 16:27:25 435.910
SWISSCUBE 30 Jul 16:23:33 16:26:56 19° 292° (WNW) 16:30:09 437.505
CUSAT 1 30 Jul 16:26:21 16:30:32 83° 260° (W) 16:36:08 437.405
ITUPSAT 1 30 Jul 16:44:29 16:46:51 13° 295° (WNW) 16:48:59 437.325
Cosmos 2504 30 Jul 16:54:51 17:00:34 19° 277° (W) 17:05:53 435.465 / 435.565
STARS 30 Jul 17:02:28 17:06:53 70° 284° (WNW) 17:11:16 437.465
AO-7 30 Jul 17:07:45 17:15:58 58° 258° (WSW) 17:24:12 29.400- 29.500
CUTE-I 30 Jul 17:24:56 17:25:20 10° 62° (ENE) 17:26:06 437.470
KKS-1 30 Jul 17:25:20 17:28:55 24° 290° (WNW) 17:32:25 437.445
